Glendive, MT

2:23 PM MDT on May 23, 2017 (GMT -0600)
Dawson Community

Weather History for KGDV - January, 2014

Change the Weather History Date:

Thursday, January 16, 2014

  Actual Average Record
Temperature  
Mean Temperature 24 °F -  
Max Temperature 30 °F 23 °F 41 °F (2009)
Min Temperature 17 °F 6 °F -25 °F (2005)
Degree Days  
Heating Degree Days 40    
Moisture  
Dew Point 19 °F    
Average Humidity 73    
Maximum Humidity 93    
Minimum Humidity 64    
Precipitation  
Precipitation 0.00 in - - ()
Sea Level Pressure  
Sea Level Pressure 30.19 in    
Wind  
Wind Speed 22 mph (WNW)    
Max Wind Speed 32 mph    
Max Gust Speed 44 mph    
Visibility 10 miles    
Events      
Averages and records for this station are not official NWS values.
T = Trace of Precipitation, MM = Missing Value Source: NWS Daily Summary

Daily Weather History Graph

Daily Weather History Graph

Search for Another Location

Airport or City:

Trip Planner

Search our weather history database for the weather conditions in past years. The results will help you decide how hot, cold, wet, or windy it might be!

Date:

Astronomy

Jan. 16, 2014 Rise Set
Actual Time 7:40 AM MST 4:38 PM MST
Civil Twilight 7:06 AM MST 5:12 PM MST
Nautical Twilight 6:28 AM MST 5:50 PM MST
Astronomical Twilight 5:51 AM MST 6:26 PM MST
Moon 5:39 PM MST (1/16) 7:29 AM MST (1/16)
Length of Visible Light 10h 06m
Length of Day
8h 57m
Full, 100% of the Moon is Illuminated
Jan 16
Full
Jan 23
Last Quarter
Jan 30
New
Feb 6
First Quarter
Feb 14
Full

Hourly Weather History & Observations

Time (MST) Temp. Windchill Dew Point Humidity Pressure Visibility Wind Dir Wind Speed Gust Speed Precip Events Conditions
12:15 AM 30.2 °F 15.9 °F 21.2 °F 69% 29.99 in 10.0 mi West 26.5 mph 33.4 mph N/A   Clear
12:35 AM 30.2 °F 16.2 °F 21.2 °F 69% 30.00 in 10.0 mi West 25.3 mph 34.5 mph N/A   Clear
12:55 AM 30.2 °F 15.7 °F 21.2 °F 69% 30.01 in 10.0 mi West 27.6 mph 34.5 mph N/A   Clear
1:15 AM 28.4 °F 14.4 °F 19.4 °F 69% 30.02 in 10.0 mi West 23.0 mph 32.2 mph N/A   Clear
1:35 AM 28.4 °F 14.1 °F 19.4 °F 69% 30.03 in 10.0 mi West 24.2 mph 33.4 mph N/A   Clear
1:55 AM 28.4 °F 13.8 °F 19.4 °F 69% 30.04 in 10.0 mi West 25.3 mph 33.4 mph N/A   Clear
2:15 AM 28.4 °F 13.5 °F 19.4 °F 69% 30.05 in 10.0 mi West 26.5 mph 33.4 mph N/A   Clear
2:35 AM 28.4 °F 14.4 °F 19.4 °F 69% 30.05 in 10.0 mi West 23.0 mph 28.8 mph N/A   Clear
2:55 AM 28.4 °F 14.4 °F 19.4 °F 69% 30.06 in 10.0 mi West 23.0 mph 27.6 mph N/A   Clear
3:15 AM 28.4 °F 14.7 °F 19.4 °F 69% 30.06 in 10.0 mi West 21.9 mph 32.2 mph N/A   Clear
3:35 AM 28.4 °F 13.5 °F 19.4 °F 69% 30.06 in 10.0 mi West 26.5 mph 33.4 mph N/A   Clear
3:55 AM 28.4 °F 13.5 °F 19.4 °F 69% 30.06 in 10.0 mi West 26.5 mph 35.7 mph N/A   Clear
4:15 AM 28.4 °F 13.5 °F 19.4 °F 69% 30.07 in 10.0 mi WNW 26.5 mph 34.5 mph N/A   Clear
4:35 AM 28.4 °F 14.1 °F 19.4 °F 69% 30.08 in 10.0 mi WNW 24.2 mph 38.0 mph N/A   Clear
4:55 AM 28.4 °F 13.5 °F 19.4 °F 69% 30.09 in 10.0 mi WNW 26.5 mph 36.8 mph N/A   Clear
5:15 AM 28.4 °F 12.5 °F 19.4 °F 69% 30.10 in 10.0 mi WNW 31.1 mph 36.8 mph N/A   Clear
5:35 AM 28.4 °F 12.5 °F 17.6 °F 64% 30.10 in 10.0 mi WNW 31.1 mph 40.3 mph N/A   Clear
5:55 AM 28.4 °F 12.7 °F 17.6 °F 64% 30.11 in 10.0 mi WNW 29.9 mph 43.7 mph N/A   Clear
6:15 AM 28.4 °F 12.3 °F 17.6 °F 64% 30.12 in 10.0 mi WNW 32.2 mph 41.4 mph N/A   Clear
6:35 AM 28.4 °F 12.7 °F 17.6 °F 64% 30.13 in 10.0 mi NW 29.9 mph 41.4 mph N/A   Clear
6:55 AM 26.6 °F 10.0 °F 17.6 °F 69% 30.14 in 10.0 mi NW 31.1 mph 40.3 mph N/A   Clear
7:15 AM 26.6 °F 11.1 °F 17.6 °F 69% 30.15 in 10.0 mi NW 26.5 mph 38.0 mph N/A   Clear
7:55 AM 26.6 °F 10.8 °F 19.4 °F 74% 30.18 in 10.0 mi NW 27.6 mph 35.7 mph N/A   Mostly Cloudy
8:15 AM 26.6 °F 10.6 °F 17.6 °F 69% 30.19 in 10.0 mi NW 28.8 mph 39.1 mph N/A   Overcast
8:35 AM 26.6 °F 11.4 °F 19.4 °F 74% 30.21 in 10.0 mi NW 25.3 mph 40.3 mph N/A   Mostly Cloudy
8:55 AM 26.6 °F 11.1 °F 19.4 °F 74% 30.23 in 10.0 mi NW 26.5 mph 36.8 mph N/A   Overcast
9:15 AM 26.6 °F 10.3 °F 19.4 °F 74% 30.24 in 10.0 mi NW 29.9 mph 34.5 mph N/A   Mostly Cloudy
9:35 AM 26.6 °F 11.7 °F 19.4 °F 74% 30.25 in 10.0 mi NW 24.2 mph 32.2 mph N/A   Scattered Clouds
10:15 AM 28.4 °F 13.5 °F 19.4 °F 69% 30.26 in 10.0 mi NNW 26.5 mph 33.4 mph N/A   Mostly Cloudy
10:35 AM 28.4 °F 14.4 °F 19.4 °F 69% 30.27 in 10.0 mi NW 23.0 mph 31.1 mph N/A   Scattered Clouds
10:55 AM 28.4 °F 13.5 °F 19.4 °F 69% 30.27 in 10.0 mi NW 26.5 mph 31.1 mph N/A   Scattered Clouds
11:15 AM 28.4 °F 13.8 °F 19.4 °F 69% 30.28 in 10.0 mi NW 25.3 mph 31.1 mph N/A   Scattered Clouds
11:35 AM 28.4 °F 13.8 °F 19.4 °F 69% 30.28 in 10.0 mi NNW 25.3 mph 31.1 mph N/A   Scattered Clouds
11:55 AM 28.4 °F 14.7 °F 19.4 °F 69% 30.28 in 10.0 mi WNW 21.9 mph 27.6 mph N/A   Scattered Clouds
12:15 PM 28.4 °F 14.1 °F 19.4 °F 69% 30.28 in 10.0 mi WNW 24.2 mph 28.8 mph N/A   Mostly Cloudy
12:35 PM 28.4 °F 15.8 °F 19.4 °F 69% 30.28 in 10.0 mi NW 18.4 mph 26.5 mph N/A   Mostly Cloudy
12:55 PM 28.4 °F 15.4 °F 19.4 °F 69% 30.28 in 10.0 mi NW 19.6 mph 26.5 mph N/A   Mostly Cloudy
1:15 PM 28.4 °F 15.4 °F 19.4 °F 69% 30.28 in 10.0 mi NW 19.6 mph 27.6 mph N/A   Partly Cloudy
1:35 PM 30.2 °F 18.1 °F 19.4 °F 64% 30.28 in 10.0 mi NW 18.4 mph 27.6 mph N/A   Clear
1:55 PM 30.2 °F 16.8 °F 21.2 °F 69% 30.28 in 10.0 mi WNW 23.0 mph 26.5 mph N/A   Partly Cloudy
2:15 PM 30.2 °F 18.1 °F 21.2 °F 69% 30.28 in 10.0 mi NW 18.4 mph 25.3 mph N/A   Partly Cloudy
2:55 PM 30.2 °F 18.5 °F 19.4 °F 64% 30.29 in 10.0 mi NW 17.3 mph 24.2 mph N/A   Clear
3:15 PM 30.2 °F 18.9 °F 21.2 °F 69% 30.29 in 10.0 mi NW 16.1 mph 20.7 mph N/A   Clear
3:35 PM 30.2 °F 20.2 °F 19.4 °F 64% 30.29 in 10.0 mi NW 12.7 mph - N/A   Clear
3:55 PM 28.4 °F 19.1 °F 19.4 °F 69% 30.29 in 10.0 mi NW 10.4 mph - N/A   Clear
4:15 PM 28.4 °F 19.1 °F 19.4 °F 69% 30.29 in 10.0 mi WNW 10.4 mph - N/A   Clear
4:35 PM 26.6 °F 16.2 °F 19.4 °F 74% 30.30 in 10.0 mi WNW 11.5 mph - N/A   Clear
4:55 PM 24.8 °F 15.3 °F 19.4 °F 80% 30.30 in 10.0 mi West 9.2 mph - N/A   Clear
5:15 PM 24.8 °F 15.3 °F 19.4 °F 80% 30.29 in 10.0 mi WNW 9.2 mph - N/A   Clear
5:35 PM 23.0 °F 13.1 °F 17.6 °F 80% 30.28 in 10.0 mi West 9.2 mph - N/A   Clear
5:55 PM 23.0 °F 13.1 °F 19.4 °F 86% 30.28 in 10.0 mi West 9.2 mph - N/A   Clear
6:15 PM 21.2 °F 10.1 °F 17.6 °F 86% 30.28 in 10.0 mi West 10.4 mph - N/A   Clear
6:35 PM 23.0 °F 11.1 °F 19.4 °F 86% 30.27 in 10.0 mi West 12.7 mph - N/A   Clear
6:55 PM 23.0 °F 11.7 °F 17.6 °F 80% 30.26 in 10.0 mi West 11.5 mph - N/A   Clear
7:15 PM 23.0 °F 11.7 °F 17.6 °F 80% 30.25 in 10.0 mi West 11.5 mph - N/A   Clear
7:35 PM 23.0 °F 11.1 °F 17.6 °F 80% 30.25 in 10.0 mi West 12.7 mph - N/A   Clear
7:55 PM 23.0 °F 11.1 °F 17.6 °F 80% 30.24 in 10.0 mi West 12.7 mph - N/A   Clear
8:15 PM 21.2 °F 10.1 °F 17.6 °F 86% 30.24 in 10.0 mi West 10.4 mph - N/A   Clear
8:35 PM 21.2 °F - 17.6 °F 86% 30.24 in 10.0 mi Calm Calm - N/A   Clear
8:55 PM 21.2 °F 16.4 °F 15.8 °F 80% 30.23 in 10.0 mi SW 3.5 mph - N/A   Clear
9:15 PM 21.2 °F 12.6 °F 17.6 °F 86% 30.22 in 10.0 mi WSW 6.9 mph - N/A   Clear
9:35 PM 21.2 °F 13.6 °F 15.8 °F 80% 30.22 in 10.0 mi West 5.8 mph - N/A   Clear
9:55 PM 21.2 °F 11.7 °F 17.6 °F 86% 30.21 in 10.0 mi West 8.1 mph - N/A   Clear
10:15 PM 21.2 °F 13.6 °F 15.8 °F 80% 30.20 in 10.0 mi West 5.8 mph - N/A   Clear
10:35 PM 21.2 °F 13.6 °F 15.8 °F 80% 30.19 in 10.0 mi West 5.8 mph - N/A   Clear
10:55 PM 19.4 °F - 12.2 °F 74% 30.19 in 10.0 mi Calm Calm - N/A   Clear
11:15 PM 19.4 °F 10.4 °F 15.8 °F 86% 30.17 in 10.0 mi South 6.9 mph - N/A   Clear
11:35 PM 19.4 °F 11.5 °F 15.8 °F 86% 30.17 in 10.0 mi SSE 5.8 mph - N/A   Clear
11:55 PM 17.6 °F 6.4 °F 15.8 °F 93% 30.15 in 10.0 mi South 9.2 mph - N/A   Clear